Temperature
19 19 18 18 18 18 18 18 18 18 18 18 18 18 18 18 18 18 18 18 18 18 18 18 18 18 18 18 18 18 18 17 17 17 18 18 18 17 17 17 16 16 16
18 18 18 18 18 18 18 18 18 18 18 18 18 18 18 18 18 18 18 19 19 19 19 19 18 18 18 18 18 18 18 18 17 17 17 17 18 17 17 17 17 16 16
18 18 18 18 18 18 18 18 18 18 18 18 18 18 18 18 18 18 19 19 19 19 19 19 19 19 19 18 18 18 18 18 17 17 17 17 17 17 17 17 17 17 16
18 18 18 18 18 18 18 18 18 18 18 18 18 18 18 18 18 18 18 18 19 19 19 19 19 19 19 18 18 18 18 18 18 17 17 17 17 17 17 17 17 17 17
17 17 17 17 17 17 17 17 17 18 18 18 18 18 18 18 18 18 18 18 18 18 18 19 19 19 19 18 18 18 18 18 18 17 17 17 17 17 17 17 17 17 17
17 17 17 17 16 16 17 17 17 17 17 17 17 17 18 18 18 18 18 18 18 18 18 18 19 19 19 18 18 18 18 18 17 17 17 17 17 17 17 17 17 17 17
17 17 16 16 16 16 16 16 16 17 17 17 17 17 17 17 17 18 18 18 18 18 18 19 19 19 19 19 18 17 17 17 17 17 17 17 17 17 17 17 17 17 17
16 16 16 16 16 16 16 16 16 16 16 16 16 16 16 17 17 18 18 18 18 18 18 18 18 18 18 18 18 17 17 17 17 17 17 17 17 17 17 17 17 17 17
16 16 16 16 16 16 16 16 16 16 16 16 16 16 15 16 16 17 17 17 17 17 18 18 18 17 17 17 17 17 17 17 17 17 17 17 17 17 17 17 17 17 17
15 15 15 16 16 16 16 16 16 15 15 15 15 16 15 15 15 15 16 16 16 16 16 16 17 17 17 17 17 17 17 17 17 17 17 17 17 17 17 17 17 17 17
15 15 15 15 15 15 15 15 15 15 15 15 15 15 15 15 15 14 14 15 16 16 16 16 16 16 16 16 16 16 16 16 17 17 17 17 17 17 17 17 17 17 17
15 15 14 14 14 14 14 14 14 14 14 15 15 15 15 14 14 14 14 15 15 15 15 15 15 15 15 15 15 15 16 16 16 16 16 16 16 16 16 16 16 17 17
14 14 14 14 13 13 13 13 14 14 14 14 14 14 14 14 14 14 14 14 14 14 14 14 15 15 14 14 14 15 15 15 16 16 16 16 16 16 16 16 16 16 16
13 13 13 13 13 13 13 13 13 14 14 14 14 14 14 14 14 14 14 14 14 13 13 13 13 14 14 14 14 14 15 15 15 15 15 15 15 16 16 16 16 16 16
13 13 13 13 13 13 13 13 13 14 14 14 14 14 14 14 14 14 14 14 14 13 13 13 13 13 13 14 14 14 14 15 15 15 15 15 15 15 15 15 15 15 15
13 13 13 13 13 13 13 13 13 13 13 13 13 13 13 14 13 13 13 14 14 14 13 13 13 13 13 13 13 14 14 14 15 15 15 14 14 14 14 14 14 14 14
13 13 12 12 13 13 13 13 13 13 13 13 13 13 13 13 13 13 13 13 13 14 14 12 12 12 13 13 13 13 14 14 14 14 14 13 13 13 13 13 13 13 14
13 13 12 12 12 12 12 13 13 13 13 13 13 13 13 13 13 13 13 13 13 13 14 13 12 13 13 13 13 13 13 13 13 13 12 12 12 12 12 13 13 13 13
13 12 12 12 12 12 12 12 12 12 12 12 12 12 12 12 12 12 12 12 13 12 13 13 13 13 12 12 12 13 13 12 12 12 12 12 12 12 12 12 12 12 13
13 12 12 12 12 12 12 12 12 12 12 12 12 12 12 12 12 12 12 12 12 12 13 13 13 12 12 12 12 12 12 12 12 12 12 12 12 12 12 12 12 12 12
12 12 12 12 12 12 11 11 11 11 11 11 11 11 11 12 12 12 12 12 12 13 13 13 12 12 12 12 12 12 12 11 11 11 11 11 11 11 11 11 11 11 11
12 12 12 12 12 11 11 11 11 11 11 11 11 11 11 11 12 12 12 12 12 13 13 12 12 12 11 11 11 11 11 11 11 11 11 11 11 11 11 10 10 11 11
12 12 12 12 11 11 11 11 11 11 11 10 11 11 11 11 12 12 12 12 12 12 12 12 12 11 11 11 11 11 11 10 10 10 11 11 10 10 10 10 10 10 10
12 12 12 11 11 11 11 11 11 11 11 11 11 11 11 11 11 11 11 11 11 11 11 11 11 11 11 10 10 10 10 10 10 10 10 10 10 9 9 9 9 9 9
11 12 12 11 11 11 11 11 11 11 11 11 11 11 11 11 11 11 11 11 11 11 11 11 11 10 10 10 10 10 10 10 9 9 9 9 9 9 9 8 8 8 9
11 11 11 11 11 11 11 11 11 11 11 11 11 11 11 11 11 11 11 11 11 11 11 10 10 10 10 10 9 9 9 9 9 8 8 8 8 8 8 8 8 8 8
Wind_Speed
8 8 9 10 11 12 10 9 10 10 10 12 13 13 12 13 14 14 14 19 20 21 21 20 21 21 21 21 22 23 24 25 26 26 26 26 26 26 26 26 25 24 24
9 9 9 7 9 12 13 11 8 10 10 8 10 10 12 13 14 15 15 17 20 21 22 22 22 22 22 22 22 22 22 23 25 26 26 26 26 26 26 25 25 25 25
12 9 9 9 9 12 13 11 11 9 9 8 10 11 9 11 12 14 15 15 16 18 21 22 23 24 24 23 24 24 24 24 24 25 26 26 26 26 25 24 24 24 25
15 9 9 10 10 11 9 9 9 9 9 9 9 9 9 9 12 12 13 14 15 15 17 20 22 23 24 24 24 25 25 25 25 26 26 27 27 26 26 25 24 24 24
12 8 8 9 9 8 8 9 9 8 9 10 10 9 8 9 10 11 11 13 15 16 17 18 20 22 24 25 25 25 25 25 26 26 27 28 28 27 26 25 25 25 24
7 6 6 8 7 7 7 8 10 9 8 8 9 9 8 9 9 10 12 11 13 16 17 17 17 17 20 23 24 26 26 26 25 26 27 28 28 28 27 26 25 25 25
7 5 5 6 6 6 8 9 8 9 8 5 4 6 7 10 11 11 11 11 12 13 14 14 14 15 15 18 21 24 26 26 25 25 26 27 27 28 27 26 25 25 26
6 5 6 7 7 7 8 9 8 6 5 5 5 4 4 4 6 8 9 9 10 9 10 11 12 13 15 14 15 18 20 22 22 23 25 26 26 26 27 27 26 25 26
6 5 7 8 8 8 8 9 9 9 8 7 8 6 5 6 3 3 4 5 6 6 6 7 9 11 13 13 12 12 13 12 12 13 15 18 22 24 25 26 27 26 25
6 7 7 8 9 8 9 10 10 9 9 8 7 9 8 5 4 3 2 3 4 5 5 5 6 6 6 6 5 4 5 4 3 4 6 8 12 17 20 24 26 27 26
8 8 8 9 9 9 10 11 10 10 9 10 8 6 9 8 8 7 5 3 2 2 3 4 4 3 2 2 3 3 5 6 7 6 5 3 1 4 10 17 22 25 26
7 8 9 9 9 9 10 11 11 12 11 12 10 8 7 5 6 8 9 6 3 1 2 3 3 1 1 2 4 8 9 10 10 9 8 8 7 6 3 2 9 17 23
6 8 9 9 9 9 10 10 10 11 11 12 11 10 9 8 5 6 7 5 3 0 1 3 4 3 4 4 6 10 10 10 9 9 8 8 9 9 8 8 6 3 5
7 9 10 10 10 10 9 8 8 9 9 10 11 11 9 8 7 6 5 5 3 2 2 2 3 5 5 6 9 11 9 11 9 8 8 8 9 9 9 9 9 9 8
6 8 10 10 10 9 9 7 6 7 7 8 8 9 8 7 7 7 5 5 6 4 2 1 2 4 5 7 9 9 9 12 12 9 9 9 9 10 10 10 10 10 9
5 8 10 10 10 9 8 6 6 5 5 5 5 7 7 5 6 5 5 4 4 4 4 2 2 3 4 7 10 10 10 13 14 12 12 12 12 12 12 12 12 11 10
5 7 8 9 9 9 8 6 5 4 2 2 2 5 6 6 5 5 4 4 3 4 7 3 2 2 5 8 7 9 11 11 13 16 15 15 15 14 14 14 14 14 13
5 5 6 7 8 8 8 7 5 4 2 1 1 3 5 6 7 5 5 5 5 5 8 7 3 4 6 5 6 8 7 10 11 15 16 15 15 15 15 15 14 14 14
4 4 4 5 6 7 6 6 6 5 6 6 6 5 6 7 7 5 6 7 7 7 7 9 5 4 5 5 6 6 7 6 7 9 11 12 12 13 13 13 14 14 14
4 3 3 3 4 4 5 6 6 7 8 9 8 7 6 6 7 7 7 9 10 10 9 10 7 5 5 4 5 5 5 5 6 6 7 8 9 10 11 12 13 14 14
5 3 1 1 2 2 4 5 6 8 9 9 9 7 6 7 8 7 8 9 11 10 10 10 8 6 4 4 4 2 3 3 4 5 4 5 5 6 8 10 12 14 14
6 4 3 2 2 3 6 7 7 7 7 8 8 7 8 10 14 14 13 11 10 11 10 8 7 7 5 4 3 3 3 3 3 5 4 4 4 6 6 9 13 15 16
7 6 5 4 5 6 9 8 7 6 6 5 5 6 7 8 10 11 13 14 12 10 10 8 9 6 4 3 3 4 3 4 3 4 3 4 4 4 5 9 14 16 17
8 7 7 7 7 8 11 10 8 6 6 5 5 6 7 6 6 10 10 10 9 7 6 6 8 5 3 3 2 3 3 3 2 3 4 3 4 3 3 5 12 17 18
8 7 8 9 9 10 13 12 10 6 7 6 5 5 6 6 8 13 12 12 11 10 11 13 12 10 9 7 3 4 4 4 3 3 5 3 3 3 2 3 7 14 16
9 10 9 9 10 11 14 15 13 8 7 6 5 5 6 8 9 11 12 13 12 8 8 10 10 10 9 10 10 5 3 4 3 2 4 3 3 3 2 2 4 8 11
Wind_Direction
241 242 245 245 246 247 248 252 253 252 252 253 251 248 251 253 255 255 258 263 266 266 263 261 261 264 265 259 250 243 237 233 230 228 228 228 227 228 228 227 225 223 223
238 239 242 242 245 245 246 249 250 254 254 251 253 250 250 250 252 253 254 261 264 264 261 260 261 260 260 257 252 248 243 238 234 231 230 230 230 231 231 229 227 225 225
243 244 244 244 244 246 246 247 248 246 250 251 255 255 254 250 249 251 254 257 263 264 260 259 259 258 256 254 250 248 246 241 236 232 231 231 232 232 231 228 226 224 224
250 250 251 251 249 246 244 248 248 244 243 241 246 250 248 249 250 251 253 256 260 264 264 260 257 257 256 254 253 250 248 245 240 234 231 232 233 233 231 228 226 224 222
263 251 255 261 261 255 249 247 246 238 242 242 241 245 246 249 251 253 253 254 255 257 260 262 259 256 257 257 255 255 253 249 244 239 234 232 233 233 230 228 226 226 223
282 272 264 268 269 265 259 249 248 240 239 240 245 250 248 248 249 249 252 254 254 256 257 258 260 259 256 256 256 256 256 252 246 243 240 235 232 231 229 227 224 223 222
296 287 279 278 270 260 258 253 249 247 244 227 232 261 259 248 247 249 248 250 253 255 257 258 258 258 257 253 254 255 255 252 246 243 244 240 234 230 227 226 223 221 221
304 301 289 285 277 266 261 256 244 243 237 201 205 230 271 280 246 243 244 246 253 259 263 264 260 255 252 250 250 252 255 254 250 247 245 243 238 231 226 224 222 221 220
305 296 293 289 284 273 265 256 243 237 241 221 206 206 218 237 275 268 247 246 252 259 266 271 267 261 252 243 243 246 254 256 254 252 251 248 240 232 225 222 221 220 220
313 308 299 295 288 280 270 263 252 240 237 235 220 220 223 209 223 270 273 254 252 254 268 276 276 270 249 230 223 225 245 253 270 285 276 260 245 235 228 225 223 220 220
314 310 306 302 295 286 276 269 261 247 237 234 224 215 225 226 223 233 258 258 267 269 295 303 291 275 245 165 146 124 98 83 74 63 48 32 337 244 231 229 228 225 222
308 307 311 305 298 290 281 272 263 253 243 238 233 218 208 208 211 218 233 242 251 289 348 359 346 338 60 96 111 105 94 83 72 66 61 58 58 57 52 250 240 235 230
310 312 316 311 304 294 285 275 265 257 247 241 235 228 221 218 195 195 213 222 213 166 29 18 11 34 60 66 72 78 75 74 70 68 66 64 63 60 56 48 38 3 255
296 304 312 312 309 305 298 282 270 262 252 245 237 228 223 220 206 197 190 183 178 150 81 34 15 38 58 62 64 65 62 61 65 68 74 76 74 68 62 56 50 45 41
294 308 315 317 316 313 308 299 280 270 256 246 237 227 219 213 204 201 195 186 175 162 147 113 64 33 58 71 67 68 62 58 57 66 81 83 81 72 62 55 49 45 43
296 314 321 323 324 327 325 312 295 278 260 250 229 215 209 198 190 187 184 176 168 147 132 103 80 55 71 84 74 72 65 58 55 70 83 85 82 71 60 52 45 39 33
298 315 321 323 328 336 341 335 321 305 280 275 235 208 196 174 162 148 130 121 125 127 123 105 71 67 82 85 74 69 64 62 62 67 80 83 80 73 65 59 53 46 39
288 307 319 326 334 341 348 351 350 353 3 37 64 129 136 133 120 113 109 106 106 111 126 122 83 68 73 78 78 67 57 58 61 65 74 78 79 76 71 65 58 51 45
276 305 325 332 337 347 2 13 25 37 49 54 59 76 89 101 98 98 108 113 111 106 105 114 100 73 74 61 71 63 54 46 49 53 62 66 70 73 68 60 51 46 40
248 282 309 327 343 7 32 42 51 58 60 56 52 56 65 86 103 110 116 120 117 110 107 107 101 85 74 57 69 68 65 45 41 34 41 48 56 65 61 51 42 34 27
225 232 258 349 21 52 72 78 73 73 73 70 59 56 68 97 112 119 127 124 122 117 112 109 104 94 79 71 71 67 77 61 54 31 31 40 45 54 48 40 33 25 19
211 200 188 154 109 111 117 109 101 88 84 85 81 70 78 89 96 95 97 102 116 124 122 114 110 106 98 89 85 80 81 67 42 9 18 33 39 51 43 41 33 31 25
199 189 180 169 160 159 153 140 113 102 99 103 104 97 92 88 92 95 84 77 76 93 116 124 121 122 124 136 126 110 100 88 66 354 360 29 26 44 36 39 36 35 29
196 189 182 178 174 182 175 157 124 102 94 86 90 107 112 102 104 109 99 86 75 69 89 101 114 116 120 146 151 130 129 107 73 36 19 30 9 13 5 28 28 29 26
199 190 181 179 181 184 181 162 139 121 104 84 73 86 114 113 124 120 111 104 93 83 79 85 88 86 81 77 111 115 106 101 68 22 16 18 358 339 331 1 12 16 16
208 193 182 183 184 180 176 164 148 137 122 108 85 73 87 112 124 126 122 120 115 113 110 94 75 62 63 59 58 72 108 111 98 45 10 3 2 358 1 348 351 7 11
Height
1534 1535 1535 1535 1536 1536 1536 1537 1537 1537 1537 1536 1536 1536 1536 1536 1535 1535 1534 1534 1534 1534 1534 1534 1535 1535 1536 1536 1537 1538 1538 1539 1540 1541 1542 1543 1544 1546 1548 1550 1551 1553 1554
1530 1530 1531 1531 1531 1531 1531 1532 1532 1532 1532 1532 1531 1531 1531 1531 1531 1531 1530 1530 1530 1530 1530 1530 1530 1531 1531 1532 1532 1533 1534 1534 1535 1536 1537 1538 1539 1541 1543 1544 1546 1548 1550
1526 1525 1525 1525 1525 1525 1525 1525 1525 1525 1525 1525 1525 1525 1525 1526 1525 1525 1525 1525 1525 1525 1525 1525 1526 1526 1527 1527 1527 1528 1529 1530 1530 1531 1532 1533 1534 1536 1537 1539 1541 1543 1545
1521 1520 1520 1519 1519 1519 1519 1518 1518 1518 1518 1518 1518 1518 1519 1519 1519 1519 1519 1519 1519 1519 1520 1520 1520 1521 1521 1522 1522 1522 1523 1524 1525 1526 1526 1527 1529 1530 1532 1534 1536 1537 1539
1515 1514 1512 1512 1512 1511 1510 1510 1510 1510 1510 1511 1512 1512 1512 1512 1512 1512 1512 1512 1513 1513 1513 1513 1514 1514 1515 1515 1515 1516 1516 1517 1518 1519 1521 1522 1523 1525 1526 1528 1530 1532 1534
1510 1508 1507 1506 1505 1504 1503 1503 1503 1503 1503 1503 1504 1504 1504 1504 1504 1504 1504 1505 1505 1505 1505 1505 1505 1506 1506 1507 1508 1509 1509 1510 1511 1512 1514 1515 1517 1519 1520 1522 1524 1526 1528
1505 1503 1501 1500 1499 1497 1497 1496 1496 1495 1495 1496 1496 1496 1496 1496 1496 1496 1497 1497 1498 1498 1497 1497 1496 1496 1497 1498 1500 1501 1502 1503 1504 1505 1507 1509 1511 1512 1514 1516 1518 1520 1522
1500 1498 1496 1494 1493 1491 1490 1489 1489 1488 1488 1489 1490 1490 1489 1489 1488 1489 1490 1490 1490 1490 1490 1489 1488 1488 1488 1489 1491 1493 1495 1497 1498 1499 1500 1502 1504 1505 1507 1509 1512 1513 1516
1494 1492 1489 1487 1485 1484 1482 1481 1481 1481 1480 1481 1482 1484 1483 1481 1482 1481 1482 1483 1483 1484 1483 1482 1481 1480 1480 1481 1483 1486 1488 1490 1491 1493 1494 1495 1497 1498 1500 1502 1505 1507 1509
1488 1485 1482 1480 1477 1475 1473 1472 1472 1472 1472 1473 1474 1475 1476 1477 1478 1476 1476 1477 1478 1478 1477 1476 1475 1474 1474 1475 1477 1479 1482 1484 1486 1486 1487 1489 1490 1492 1493 1495 1497 1499 1502
1483 1479 1475 1472 1469 1466 1464 1463 1463 1463 1464 1464 1466 1467 1468 1469 1470 1471 1470 1471 1473 1473 1472 1471 1470 1470 1470 1470 1472 1474 1477 1479 1480 1481 1482 1482 1484 1485 1487 1488 1490 1492 1495
1477 1473 1468 1465 1462 1459 1456 1455 1454 1454 1455 1456 1457 1459 1460 1461 1461 1463 1464 1466 1467 1468 1467 1467 1466 1466 1466 1467 1469 1471 1473 1474 1475 1476 1477 1478 1478 1479 1481 1482 1484 1486 1488
1472 1468 1464 1460 1456 1453 1451 1448 1447 1447 1448 1448 1449 1451 1452 1453 1455 1457 1459 1461 1463 1464 1464 1464 1464 1464 1465 1466 1468 1470 1471 1472 1472 1473 1473 1474 1474 1475 1476 1477 1478 1480 1481
1468 1464 1461 1457 1453 1449 1446 1444 1442 1441 1441 1441 1442 1444 1445 1446 1449 1451 1454 1456 1458 1460 1461 1462 1463 1463 1464 1465 1467 1468 1470 1470 1470 1471 1471 1471 1471 1472 1473 1473 1474 1475 1476
1465 1462 1458 1455 1451 1447 1443 1440 1438 1437 1436 1436 1436 1437 1439 1440 1443 1445 1448 1451 1454 1456 1459 1460 1461 1462 1463 1465 1466 1467 1468 1469 1469 1469 1469 1469 1469 1470 1471 1471 1471 1472 1472
1463 1460 1457 1453 1449 1445 1441 1438 1435 1434 1432 1431 1431 1432 1433 1435 1438 1441 1444 1446 1449 1452 1455 1458 1460 1462 1463 1465 1466 1467 1467 1466 1466 1466 1466 1467 1468 1469 1469 1470 1470 1470 1470
1460 1457 1455 1451 1448 1443 1439 1436 1433 1431 1430 1428 1428 1428 1429 1431 1434 1437 1440 1443 1446 1449 1452 1456 1459 1462 1464 1465 1466 1466 1465 1464 1464 1464 1464 1465 1467 1468 1468 1469 1469 1469 1468
1458 1455 1453 1450 1447 1443 1439 1435 1432 1430 1429 1427 1426 1426 1426 1429 1431 1435 1438 1442 1445 1449 1451 1454 1459 1462 1464 1465 1466 1466 1465 1465 1464 1465 1465 1466 1467 1467 1468 1468 1468 1467 1466
1455 1453 1451 1449 1446 1443 1439 1435 1432 1430 1429 1428 1427 1426 1427 1429 1432 1435 1438 1442 1446 1449 1453 1456 1460 1462 1464 1465 1466 1467 1467 1467 1467 1467 1468 1468 1468 1468 1468 1467 1467 1466 1465
1452 1451 1449 1448 1445 1442 1439 1436 1433 1431 1430 1429 1429 1430 1430 1432 1434 1437 1440 1444 1447 1451 1455 1458 1460 1463 1464 1466 1468 1469 1470 1470 1470 1470 1470 1469 1469 1469 1468 1467 1466 1465 1463
1449 1448 1447 1446 1444 1442 1440 1437 1435 1434 1432 1432 1433 1434 1435 1436 1438 1440 1443 1447 1450 1453 1456 1458 1461 1463 1466 1468 1469 1470 1471 1472 1472 1472 1471 1471 1470 1469 1468 1467 1465 1464 1462
1444 1444 1444 1444 1443 1441 1440 1439 1437 1436 1436 1436 1437 1438 1439 1441 1443 1445 1448 1451 1453 1455 1457 1459 1462 1464 1467 1468 1470 1471 1472 1472 1472 1473 1472 1471 1470 1469 1468 1466 1464 1462 1461
1439 1440 1441 1441 1441 1441 1441 1441 1440 1440 1440 1441 1442 1443 1445 1446 1447 1449 1452 1454 1456 1458 1460 1461 1463 1465 1467 1469 1471 1471 1471 1472 1472 1472 1472 1471 1470 1468 1467 1466 1464 1462 1460
1434 1435 1436 1438 1439 1439 1440 1441 1441 1442 1443 1444 1446 1447 1448 1450 1451 1453 1454 1456 1457 1459 1461 1463 1464 1467 1468 1470 1471 1471 1472 1471 1471 1472 1472 1471 1470 1469 1467 1466 1464 1462 1459
1427 1429 1431 1433 1435 1437 1439 1440 1442 1443 1445 1446 1448 1449 1450 1451 1453 1454 1455 1456 1458 1460 1462 1464 1465 1467 1469 1470 1470 1471 1471 1471 1471 1472 1471 1471 1470 1468 1467 1466 1464 1462 1459
1419 1423 1425 1428 1431 1434 1436 1439 1441 1443 1445 1447 1448 1450 1451 1452 1453 1454 1455 1456 1458 1460 1462 1464 1466 1468 1469 1469 1470 1470 1470 1471 1471 1471 1471 1470 1469 1468 1467 1465 1463 1461 1458